Change the Weather History Date:

Saturday, September 1, 2012

  Actual Average Record
Temperature  
Mean Temperature 76 °F -  
Max Temperature 80 °F 84 °F 100 °F (2011)
Min Temperature 73 °F 63 °F -99 °F (1998)
Cooling Degree Days 12    
Growing Degree Days 26 (Base 50)    
Moisture  
Dew Point 69 °F    
Average Humidity 76    
Maximum Humidity 78    
Minimum Humidity 73    
Precipitation  
Precipitation 0.80 in - - ()
Sea Level Pressure  
Sea Level Pressure 29.86 in    
Wind  
Wind Speed 11 mph (NE)    
Max Wind Speed 15 mph    
Max Gust Speed 25 mph    
Visibility 8 miles    
Events Rain    
Averages and records for this station are not official NWS values.
T = Trace of Precipitation, MM = Missing Value Source: NWS Daily Summary

Daily Weather History Graph

Daily Weather History Graph

Search for Another Location

Airport or City:

Trip Planner

Search our weather history database for the weather conditions in past years. The results will help you decide how hot, cold, wet, or windy it might be!

Date:

Astronomy

Sep. 01, 2012 Rise Set
Actual Time 6:33 AM CDT 7:36 PM CDT
Civil Twilight 6:05 AM CDT 8:04 PM CDT
Nautical Twilight 5:32 AM CDT 8:37 PM CDT
Astronomical Twilight 4:57 AM CDT 9:12 PM CDT
Moon 7:53 PM CDT (9/1) 7:41 AM CDT (9/1)
Length of Visible Light 13h 59m
Length of Day
13h 03m
Full, 99% of the Moon is Illuminated
Sep 1
Full
Sep 8
Last Quarter
Sep 15
New
Sep 22
First Quarter
Sep 29
Full

Hourly Weather History & Observations

Time (CDT) Temp. Heat Index Dew Point Humidity Pressure Visibility Wind Dir Wind Speed Gust Speed Precip Events Conditions
12:15 AM 77.0 °F - 69.8 °F 78% 29.92 in 7.0 mi East 11.5 mph - 0.01 in Rain Light Rain
12:35 AM 77.0 °F - 69.8 °F 78% 29.91 in 10.0 mi ENE 11.5 mph 18.4 mph 0.03 in Rain Light Rain
12:55 AM 77.0 °F - 69.8 °F 78% 29.92 in 10.0 mi East 13.8 mph 25.3 mph 0.04 in Rain Light Rain
1:15 AM 77.0 °F - 69.8 °F 78% 29.92 in 10.0 mi East 11.5 mph 19.6 mph 0.01 in Rain Light Rain
1:35 AM 77.0 °F - 69.8 °F 78% 29.91 in 10.0 mi ENE 12.7 mph 18.4 mph 0.03 in Rain Light Rain
1:55 AM 75.2 °F - 68.0 °F 78% 29.91 in 10.0 mi ENE 11.5 mph 18.4 mph 0.04 in Rain Light Rain
2:15 AM 75.2 °F - 66.2 °F 73% 29.90 in 10.0 mi ENE 13.8 mph 17.3 mph 0.03 in Rain Light Rain
2:35 AM 75.2 °F - 66.2 °F 73% 29.90 in 10.0 mi ENE 12.7 mph - 0.06 in Rain Light Rain
2:55 AM 75.2 °F - 68.0 °F 78% 29.89 in 10.0 mi ENE 10.4 mph - 0.09 in Rain Light Rain
3:15 AM 75.2 °F - 68.0 °F 78% 29.88 in 10.0 mi NE 9.2 mph 16.1 mph 0.04 in Rain Light Rain
3:35 AM 75.2 °F - 68.0 °F 78% 29.87 in 10.0 mi ENE 12.7 mph 17.3 mph 0.06 in Rain Light Rain
4:15 AM 75.2 °F - 68.0 °F 78% 29.86 in 10.0 mi ENE 10.4 mph 19.6 mph 0.04 in Rain Rain
4:35 AM 77.0 °F - 68.0 °F 74% 29.85 in 10.0 mi NE 13.8 mph 19.6 mph 0.07 in Rain Light Rain
4:55 AM 77.0 °F - 69.8 °F 78% 29.84 in 10.0 mi ENE 11.5 mph 19.6 mph 0.07 in   Overcast
5:15 AM 77.0 °F - 69.8 °F 78% 29.84 in 10.0 mi NE 9.2 mph 17.3 mph N/A   Overcast
5:35 AM 77.0 °F - 69.8 °F 78% 29.83 in 5.0 mi NE 12.7 mph 17.3 mph N/A Rain Light Rain
5:55 AM 77.0 °F - 69.8 °F 78% 29.83 in 5.0 mi NE 11.5 mph 18.4 mph 0.01 in Rain Light Rain
6:15 AM 77.0 °F - 69.8 °F 78% 29.82 in 5.0 mi NE 13.8 mph 20.7 mph N/A Rain Rain
6:35 AM 77.0 °F - 69.8 °F 78% 29.82 in 7.0 mi NE 9.2 mph 17.3 mph 0.02 in Rain Light Rain
6:55 AM 75.2 °F - 68.0 °F 78% 29.82 in 10.0 mi NE 10.4 mph 23.0 mph 0.03 in Rain Light Rain
7:15 AM 75.2 °F - 68.0 °F 78% 29.82 in 4.0 mi ENE 9.2 mph - 0.01 in   Light Drizzle
7:35 AM 77.0 °F - 69.8 °F 78% 29.83 in 2.0 mi East 15.0 mph - 0.02 in Rain Light Rain
7:55 AM 77.0 °F - 69.8 °F 78% 29.84 in 7.0 mi East 13.8 mph - 0.02 in   Overcast
8:15 AM 77.0 °F - 69.8 °F 78% 29.85 in 2.0 mi ESE 10.4 mph - 0.03 in Rain Light Rain
8:35 AM 77.0 °F - 69.8 °F 78% 29.85 in 3.0 mi East 9.2 mph - 0.04 in Rain Light Rain
8:55 AM 77.0 °F - 69.8 °F 78% 29.85 in 10.0 mi East 9.2 mph - 0.04 in   Overcast
9:15 AM 77.0 °F - 69.8 °F 78% 29.86 in 10.0 mi East 11.5 mph - N/A   Overcast
9:35 AM 77.0 °F - 69.8 °F 78% 29.87 in 3.0 mi ESE 11.5 mph - N/A Rain Light Rain
10:15 AM 78.8 °F - 69.8 °F 74% 29.88 in 10.0 mi ESE 10.4 mph - N/A   Overcast
10:35 AM 78.8 °F - 69.8 °F 74% 29.88 in 10.0 mi East 10.4 mph - N/A   Overcast
10:55 AM 78.8 °F - 69.8 °F 74% 29.88 in 7.0 mi East 10.4 mph - N/A   Overcast
11:15 AM 78.8 °F - 69.8 °F 74% 29.88 in 10.0 mi ENE 8.1 mph - N/A   Mostly Cloudy
11:35 AM 78.8 °F - 69.8 °F 74% 29.88 in 10.0 mi ENE 5.8 mph - N/A   Overcast
11:55 AM 78.8 °F - 69.8 °F 74% 29.88 in 4.0 mi ENE 8.1 mph - N/A   Drizzle
12:15 PM 77.0 °F - 69.8 °F 78% 29.88 in 5.0 mi NE 6.9 mph - 0.09 in Rain Rain
12:35 PM 78.8 °F - 69.8 °F 74% 29.87 in 4.0 mi NE 6.9 mph - 0.14 in Rain Rain
12:55 PM 77.0 °F - 69.8 °F 78% 29.87 in 10.0 mi ENE 9.2 mph - 0.15 in   Light Drizzle
1:15 PM 77.0 °F - 69.8 °F 78% 29.87 in 10.0 mi NE 5.8 mph - N/A   Overcast
1:35 PM 78.8 °F - 69.8 °F 74% 29.86 in 10.0 mi NNE 8.1 mph - N/A   Overcast
1:55 PM 78.8 °F - 69.8 °F 74% 29.86 in 10.0 mi NNE 10.4 mph - N/A   Overcast
2:15 PM 78.8 °F - 69.8 °F 74% 29.85 in 10.0 mi NNE 6.9 mph - N/A   Mostly Cloudy
2:35 PM 78.8 °F - 69.8 °F 74% 29.85 in 10.0 mi NE 6.9 mph - N/A   Mostly Cloudy
2:55 PM 78.8 °F - 71.6 °F 78% 29.85 in 7.0 mi NE 6.9 mph - N/A   Overcast
3:15 PM 78.8 °F - 69.8 °F 74% 29.85 in 3.0 mi NNE 8.1 mph - 0.02 in Rain Rain
3:35 PM 80.6 °F 84.6 °F 71.6 °F 74% 29.84 in 7.0 mi NNE 10.4 mph - 0.04 in Rain Light Rain
3:55 PM 78.8 °F - 71.6 °F 78% 29.83 in 4.0 mi NNE 11.5 mph 17.3 mph 0.04 in Rain Rain
4:15 PM 78.8 °F - 71.6 °F 78% 29.83 in 10.0 mi NNE 8.1 mph - 0.02 in Rain Light Rain
4:35 PM 80.6 °F 84.6 °F 71.6 °F 74% 29.82 in 10.0 mi NNE 6.9 mph 16.1 mph 0.02 in   Overcast
4:55 PM 80.6 °F 84.6 °F 71.6 °F 74% 29.82 in 10.0 mi NNE 9.2 mph - 0.02 in   Overcast
5:15 PM 80.6 °F 84.6 °F 71.6 °F 74% 29.82 in 10.0 mi NNE 6.9 mph - N/A   Overcast
5:35 PM 80.6 °F 84.6 °F 71.6 °F 74% 29.82 in 10.0 mi NNE 9.2 mph - N/A Rain Light Rain
6:15 PM 78.8 °F - 69.8 °F 74% 29.82 in 3.0 mi NNE 10.4 mph 18.4 mph 0.07 in Rain Heavy Rain
6:35 PM 78.8 °F - 69.8 °F 74% 29.82 in 10.0 mi NNE 6.9 mph - 0.13 in Rain Light Rain
6:55 PM 77.0 °F - 69.8 °F 78% 29.82 in 5.0 mi North 6.9 mph - 0.14 in Rain Rain
7:15 PM 77.0 °F - 69.8 °F 78% 29.82 in 10.0 mi NNE 11.5 mph 17.3 mph N/A   Overcast
7:35 PM 77.0 °F - 69.8 °F 78% 29.82 in 10.0 mi NNE 13.8 mph 20.7 mph N/A   Overcast
7:55 PM 75.2 °F - 68.0 °F 78% 29.83 in 10.0 mi NE 11.5 mph 20.7 mph N/A Rain Light Rain
8:15 PM 75.2 °F - 66.2 °F 73% 29.83 in 7.0 mi NNE 12.7 mph 19.6 mph 0.01 in Rain Light Rain
8:35 PM 75.2 °F - 66.2 °F 73% 29.84 in 10.0 mi NE 11.5 mph 19.6 mph 0.01 in   Overcast
8:55 PM 75.2 °F - 66.2 °F 73% 29.85 in 10.0 mi NNE 9.2 mph 17.3 mph 0.01 in   Overcast
9:15 PM 75.2 °F - 66.2 °F 73% 29.85 in 5.0 mi NNE 9.2 mph - 0.01 in Rain Light Rain
9:35 PM 75.2 °F - 66.2 °F 73% 29.86 in 7.0 mi NNE 9.2 mph 17.3 mph 0.02 in   Overcast
9:55 PM 75.2 °F - 66.2 °F 73% 29.86 in 5.0 mi NNE 9.2 mph 16.1 mph 0.03 in Rain Light Rain
10:15 PM 75.2 °F - 66.2 °F 73% 29.86 in 7.0 mi NNE 10.4 mph 17.3 mph N/A   Overcast
10:35 PM 73.4 °F - 66.2 °F 78% 29.86 in 7.0 mi NNE 8.1 mph 17.3 mph 0.01 in Rain Light Rain
10:55 PM 73.4 °F - 66.2 °F 78% 29.86 in 7.0 mi NNE 10.4 mph - 0.01 in   Overcast
11:15 PM 73.4 °F - 66.2 °F 78% 29.85 in 7.0 mi NE 8.1 mph 19.6 mph N/A   Light Drizzle
11:35 PM 73.4 °F - 66.2 °F 78% 29.85 in 7.0 mi NNE 8.1 mph - N/A   Overcast
11:55 PM 73.4 °F - 66.2 °F 78% 29.85 in 5.0 mi NNE 11.5 mph - N/A   Haze